Flag for Germany Weather past 2 weeks in Alsdorf, North Rhine-Westphalia, Germany

Now
84 °F

Sunny.


Feels Like: 82 °F
Forecast: 65 / 90 °F
Wind: 7 mph from East

Location: Geilenkirchen Airport

Current Time: Jun 30, 2015 at 4:33:05 PM

Latest Report: Jun 30, 2015 at 3:50 PM


Visibility: 10 mi

Pressure: 30.12 "Hg

Humidity: 31%

Dew point: 50 °F

Location of AlsdorfLocation

Historic Weather in Alsdorf — Graph

°F

Alsdorf temperature yesterday

Maximum temperature yesterday: 79 °F (at 3:50 PM)
Minimum temperature yesterday: 63 °F (at 5:50 AM)
Average temperature yesterday: 70 °F

Past Weeks' High & Low Weather Summary

 TemperatureHumidityPressure
High81 °F (Jun 30, 1:50 PM)94% (Jun 18, 6:50 AM)30.30 "Hg (Jun 18, 6:50 AM)
Low43 °F (Jun 17, 3:50 AM)37% (Jun 30, 1:50 PM)29.71 "Hg (Jun 22, 7:50 PM)
Average62 °F67%30.11 "Hg
* Reported Jun 15 2:50 PM — Jun 30 2:50 PM, Alsdorf, Weather by CustomWeather, © 2015

Note: Actual official high and low records may vary slightly from our data, if they occured in-between our weather recording intervals... More about our weather records

Advertising

Alsdorf weather history for previous 24 hours

 ConditionsComfort  
Time TempWeatherWind HumidityBarometerVisibility
2:50 PM
Tue, Jun 30
81 °FSunny.9 mph37%30.15 "Hg10 mi
1:50 PM81 °FSunny.6 mph37%30.15 "Hg10 mi
12:50 PM79 °FSunny.6 mph39%30.18 "Hg10 mi
11:50 AM77 °FSunny.6 mph42%30.18 "Hg10 mi
10:50 AM75 °FSunny.6 mph47%30.18 "Hg10 mi
9:50 AM75 °FSunny.2 mph39%30.21 "Hg10 mi
8:50 AM72 °FSunny.1 mph61%30.21 "Hg10 mi
7:50 AM68 °FSunny.No wind64%30.21 "Hg10 mi
6:50 AM57 °FSunny.1 mph88%30.21 "Hg10 mi
5:50 AM54 °FClear.1 mph88%30.18 "Hg10 mi
4:50 AM54 °FFog.1 mph94%30.18 "HgN/A
3:50 AM55 °FClear.1 mph88%30.18 "Hg10 mi
2:50 AM55 °FClear.1 mph88%30.21 "Hg10 mi
1:50 AM57 °FClear.2 mph88%30.21 "Hg10 mi
11:50 PM
Mon, Jun 29
63 °FClear.No wind73%30.21 "Hg10 mi
10:50 PM66 °FSunny.2 mph64%30.21 "Hg10 mi
9:50 PM70 °FSunny.3 mph53%30.21 "Hg10 mi
8:50 PM73 °FSunny.5 mph47%30.18 "Hg10 mi
7:50 PM75 °FSunny.8 mph47%30.18 "Hg10 mi
6:50 PM77 °FSunny.8 mph42%30.18 "Hg10 mi
5:50 PM77 °FSunny.7 mph42%30.18 "Hg10 mi
4:50 PM79 °FSunny.8 mph42%30.18 "Hg10 mi
Weather by CustomWeather, © 2015

See weather overviewHow to use our weather pages